Regional Weather Roundup
Issued by NWS Charleston, SC

Home | Current Version | Previous Version | Text Only | Print | Product List | Glossary On
Versions: 1 2 3 4 5 6 7 8 9 10 11 12 13 14 15 16 17 18 19 20 21 22 23 24 25 26 27 28 29 30 31 32 33 34 35 36 37 38 39 40 41 42 43 44 45 46 47 48 49 50
000
ASUS42 KCHS 020126
RWRCHS

REGIONAL WEATHER ROUNDUP
NATIONAL WEATHER SERVICE CHARLESTON SC
800 PM EST SUN MAR 01 2015

NOTE: "FAIR" INDICATES FEW OR NO CLOUDS BELOW 12,000 FEET WITH NO
SIGNIFICANT WEATHER AND/OR OBSTRUCTIONS TO VISIBILITY.

NOT ALL STATIONS ARE QUALITY CONTROLLED BY THE NATIONAL
WEATHER SERVICE. USE DATA WITH CAUTION...ESPECIALLY
DEWPOINT OBSERVATIONS.

SCZ027-030-031-034>040-042>050-020200-
...SOUTHEAST SOUTH CAROLINA...

CITY           SKY/WX    TMP DP  RH WIND       PRES   REMARKS
N CHARLESTON   CLOUDY    44  42  93 N8        30.40S FOG
WATERFRONT PRK   N/A     45 N/A N/A N8          N/A
MOUNT PLEASANT LGT RAIN  45  43  93 NW6       30.39S
PINOPOLIS      NOT AVBL
MONCKS CORNER  CLOUDY    43  41  93 N3        30.40F FOG
SUMMERVILLE    CLOUDY    43  43 100 N6        30.42R FOG
BEAUFORT MCAS  CLOUDY    46  44  93 N6        30.40S FOG
BEAUFORT ARPT  CLOUDY    45  45 100 CALM      30.39F FOG
HILTON HEAD IS CLOUDY    46  46 100 N6        30.41R FOG
WALTERBORO     CLOUDY    45  45 100 CALM      30.42S FOG
ALLENDALE      CLOUDY    45  43  93 CALM      30.40F

...SOUTHERN MIDLANDS AND PEE DEE...

CITY           SKY/WX    TMP DP  RH WIND       PRES   REMARKS
GEORGETOWN     NOT AVBL
KINGSTREE      NOT AVBL
ORANGEBURG     CLOUDY    42  39  89 CALM      30.41S FOG
BARNWELL       CLOUDY    45  43  93 CALM      30.42S FOG
AIKEN          CLOUDY    41  41 100 CALM      30.42F
MANNING        CLOUDY   N/A N/A N/A CALM      30.41S FOG
COLUMBIA       CLOUDY    42  40  92 SW3       30.39F FOG
SUMTER         CLOUDY    41  39  93 SW3       30.38S
FLORENCE       CLOUDY    40  38  93 CALM      30.39F
MYRTLE BEACH   LGT RAIN  43  39  87 NW9       30.42R FOG
N MYRTLE BEACH CLOUDY    43  41  93 N6        30.38F

$$

GAZ063-065-086>088-099>101-113>116-118-119-134>141-150-020200-
...SOUTHEAST GEORGIA...

CITY           SKY/WX    TMP DP  RH WIND       PRES   REMARKS
SAVANNAH ARPT  CLOUDY    48  45  87 N5        30.40S
HUNTER AAF     CLOUDY    49  49  99 N3        30.38R
FORT STEWART   CLOUDY    49  47  93 N7        30.38R
STATESBORO     CLOUDY    46  46 100 N5        30.41S
SYLVANIA       CLOUDY    45  45 100 CALM      30.41S FOG
CLAXTON        CLOUDY    46  46 100 CALM      30.40F FOG

...CSRA...CENTRAL AND FAR SOUTHEAST GEORGIA...

CITY           SKY/WX    TMP DP  RH WIND       PRES   REMARKS
THOMSON        CLOUDY    43  43 100 S3        30.44F
AUGUSTA-BUSH   CLOUDY    42  41  96 N3        30.42F
AUGUSTA-DANIEL CLOUDY    43  40  89 CALM      30.40F FOG
SWAINSBORO     FOG       45  45 100 CALM      30.43R VSB 1/2
VIDALIA        CLOUDY    48  46  93 N3        30.41R
EASTMAN        CLOUDY    46  46 100 NE3       30.44S FOG
HAZLEHURST     CLOUDY    50  50 100 N5        30.40R
ALMA           CLOUDY    51  48  89 N5        30.39R
WAYCROSS       CLOUDY    57  56  95 NE3       30.39R FOG
JESUP          CLOUDY    55  54  94 NE5       30.39R
BAXLEY         CLOUDY    52  50  93 N3        30.39R
BRUNSWICK      CLOUDY    54  52  94 CALM      30.38S VSB 1
SAINT SIMONS   CLOUDY    51  51 100 NE6       30.38S FOG

$$

SCZ027-028-034-036>038-045-046-048>050-GAZ119-141-020200-
...LAKE AND SUPPLEMENTAL COASTAL OBSERVATIONS...

STATION/POSITION TIME  TEMP    WIND        PRES    WAVE   SWELL
                       AIR SEA DIR/SP/G            HT/PER HT/PER/DIR
                 (UTC) (F)     (DEG/KT/KT) (MB)    (FT/S) (FT/S/D)
UPR LAKE MARION  NOT AVBL
WINYAH BAY       0045   43     320/  5     1028.0R
LAKE MURRAY      0000   40        CALM     1029.1S
ACE BASIN NERRS  NOT AVBL
FORT PULASKI     0006          330/  6/  9   N/A
SAPELO ISLAND    0100   51      10/  5     1029.0S

$$

ANZ835-935-AMZ111-154-330-350-352-354-370-450-454-472-020200-
...C-MAN AND BUOY OBSERVATIONS...

STATION/POSITION TIME  TEMP    WIND        PRES    WAVE   SWELL
                       AIR SEA DIR/SP/G            HT/PER HT/PER/DIR
                 (UTC) (F)     (DEG/KT/KT) (MB)    (FT/S) (FT/S/D)
BUOY 41004       0050   55 68  350/ 12/ 14 1028.2R   6/ 9   5/ 9
BUOY 41008       0050   49 53   10/ 14/ 16 1028.5R   4/10   3/ 90/10
FOLLY BEACH CMAN 0100   44     340/  8/ 10 1029.4R
CAPERS NEARSHORE NOT AVBL
FRIPP NEARSHORE  0000   46     350/ 10/ 14 1028.0R


STATION/POSITION TIME  TEMP    WIND        PRES    WAVE   SWELL
                       AIR SEA DIR/SP/G            HT/PER HT/PER/DIR
                 (UTC) (F)     (DEG/KT/KT) (MB)    (FT/S) (FT/S/D)
5E ST. MARYS GA  0021      52                N/A     5/11   2/100/11
FRYING PAN BUOY  0050   57 62  300/ 10/ 14 1028.3R   7/ 7   7/120/ 7
BUOY 41025       NOT AVBL
CAPE LOOKOUT NC  0100   56     290/  5/  6 1027.0S
BUOY 41002       0050   69 72  140/ 17/ 19 1029.3F   7/ 7
BUOY 41010       0020   72 75  100/ 14/ 14 1027.0R
ST AUGUSTINE FL  0100   51     360/ 16/ 17 1028.4R


$$



USA.gov is the U.S. government's official web portal to all federal, state and local government web resources and services.